TimeMST,TemperatureF,Dew PointF,Humidity,Sea Level PressureIn,VisibilityMPH,Wind Direction,Wind SpeedMPH,Gust SpeedMPH,PrecipitationIn,Events,Conditions,WindDirDegrees,DateUTC
12:15 AM,32.0,15.8,51,29.71,10.0,WSW,3.5,-,N/A,,Overcast,250,2013-02-24 07:15:00
12:35 AM,30.2,15.8,55,29.71,10.0,SSW,4.6,-,N/A,,Overcast,210,2013-02-24 07:35:00
12:55 AM,30.2,15.8,55,29.71,10.0,SSW,4.6,-,N/A,,Overcast,200,2013-02-24 07:55:00
1:15 AM,30.2,15.8,55,29.70,10.0,WSW,10.4,-,N/A,,Mostly Cloudy,250,2013-02-24 08:15:00
1:35 AM,30.2,17.6,60,29.71,10.0,WSW,11.5,-,N/A,,Mostly Cloudy,250,2013-02-24 08:35:00
1:55 AM,30.2,17.6,60,29.72,10.0,West,8.1,-,N/A,,Overcast,260,2013-02-24 08:55:00
2:15 AM,28.4,19.4,69,29.72,10.0,WSW,10.4,-,N/A,,Overcast,240,2013-02-24 09:15:00
2:35 AM,28.4,17.6,64,29.71,10.0,West,9.2,-,N/A,,Mostly Cloudy,270,2013-02-24 09:35:00
3:15 AM,28.4,19.4,69,29.70,10.0,WSW,6.9,-,N/A,,Overcast,250,2013-02-24 10:15:00
3:35 AM,28.4,19.4,69,29.71,10.0,West,8.1,-,N/A,,Overcast,260,2013-02-24 10:35:00
3:55 AM,28.4,19.4,69,29.71,10.0,West,10.4,-,N/A,,Overcast,260,2013-02-24 10:55:00
4:15 AM,26.6,19.4,74,29.72,10.0,WSW,10.4,-,N/A,,Overcast,250,2013-02-24 11:15:00
4:35 AM,26.6,17.6,69,29.72,10.0,WSW,6.9,-,N/A,,Overcast,250,2013-02-24 11:35:00
4:55 AM,26.6,17.6,69,29.72,10.0,West,8.1,-,N/A,,Overcast,280,2013-02-24 11:55:00
5:15 AM,26.6,17.6,69,29.71,10.0,Calm,Calm,-,N/A,,Overcast,0,2013-02-24 12:15:00
5:35 AM,26.6,17.6,69,29.69,10.0,SSE,6.9,-,N/A,,Overcast,150,2013-02-24 12:35:00
6:15 AM,24.8,17.6,74,29.70,10.0,SSW,9.2,-,N/A,,Overcast,210,2013-02-24 13:15:00
6:35 AM,24.8,15.8,69,29.70,10.0,SW,13.8,-,N/A,,Overcast,230,2013-02-24 13:35:00
6:55 AM,24.8,15.8,69,29.69,10.0,WSW,13.8,-,N/A,,Overcast,240,2013-02-24 13:55:00
7:15 AM,24.8,15.8,69,29.69,10.0,WSW,8.1,-,N/A,,Overcast,250,2013-02-24 14:15:00
7:35 AM,24.8,17.6,74,29.70,10.0,West,9.2,-,N/A,,Mostly Cloudy,260,2013-02-24 14:35:00
7:55 AM,26.6,15.8,64,29.71,10.0,West,9.2,-,N/A,,Mostly Cloudy,260,2013-02-24 14:55:00
8:15 AM,26.6,15.8,64,29.72,10.0,West,9.2,-,N/A,,Overcast,260,2013-02-24 15:15:00
8:35 AM,26.6,12.2,55,29.71,10.0,WSW,13.8,-,N/A,,Mostly Cloudy,240,2013-02-24 15:35:00
8:55 AM,28.4,14.0,55,29.72,10.0,West,6.9,-,N/A,,Partly Cloudy,270,2013-02-24 15:55:00
9:15 AM,30.2,12.2,47,29.72,10.0,East,4.6,-,N/A,,Clear,90,2013-02-24 16:15:00
9:35 AM,30.2,12.2,47,29.72,10.0,Calm,Calm,-,N/A,,Scattered Clouds,0,2013-02-24 16:35:00
9:55 AM,30.2,10.4,44,29.72,10.0,South,5.8,-,N/A,,Mostly Cloudy,190,2013-02-24 16:55:00
10:15 AM,30.2,12.2,47,29.71,10.0,SSW,8.1,-,N/A,,Mostly Cloudy,200,2013-02-24 17:15:00
10:35 AM,30.2,12.2,47,29.71,10.0,Calm,Calm,-,N/A,,Mostly Cloudy,0,2013-02-24 17:35:00
10:55 AM,33.8,12.2,41,29.71,10.0,East,8.1,-,N/A,,Mostly Cloudy,100,2013-02-24 17:55:00
11:15 AM,32.0,12.2,44,29.69,10.0,ESE,4.6,-,N/A,,Scattered Clouds,120,2013-02-24 18:15:00
11:35 AM,33.8,14.0,44,29.68,10.0,SE,6.9,-,N/A,,Clear,130,2013-02-24 18:35:00
11:55 AM,33.8,12.2,41,29.67,10.0,Calm,Calm,-,N/A,,Clear,0,2013-02-24 18:55:00
12:15 PM,33.8,10.4,38,29.65,10.0,SW,4.6,-,N/A,,Clear,230,2013-02-24 19:15:00
12:35 PM,35.6,12.2,38,29.64,10.0,NNW,3.5,-,N/A,,Clear,340,2013-02-24 19:35:00
12:55 PM,35.6,10.4,35,29.64,10.0,Calm,Calm,-,N/A,,Clear,0,2013-02-24 19:55:00
1:15 PM,35.6,12.2,38,29.64,10.0,NW,3.5,-,N/A,,Mostly Cloudy,320,2013-02-24 20:15:00
1:35 PM,35.6,8.6,33,29.63,10.0,NW,6.9,-,N/A,,Scattered Clouds,320,2013-02-24 20:35:00
1:55 PM,35.6,12.2,38,29.62,10.0,NE,3.5,-,N/A,,Mostly Cloudy,40,2013-02-24 20:55:00
2:15 PM,35.6,12.2,38,29.63,10.0,North,9.2,-,N/A,,Overcast,350,2013-02-24 21:15:00
2:35 PM,33.8,12.2,41,29.64,10.0,North,17.3,-,N/A,,Overcast,10,2013-02-24 21:35:00
2:55 PM,33.8,10.4,38,29.63,10.0,North,17.3,20.7,N/A,,Overcast,360,2013-02-24 21:55:00
3:15 PM,33.8,10.4,38,29.64,10.0,North,12.7,23.0,N/A,,Overcast,360,2013-02-24 22:15:00
3:35 PM,33.8,10.4,38,29.64,10.0,North,15.0,19.6,N/A,,Overcast,360,2013-02-24 22:35:00
3:55 PM,33.8,14.0,44,29.64,10.0,North,11.5,20.7,N/A,,Overcast,10,2013-02-24 22:55:00
4:15 PM,30.2,19.4,64,29.65,10.0,NNE,17.3,21.9,N/A,,Overcast,20,2013-02-24 23:15:00
4:35 PM,28.4,19.4,69,29.66,10.0,North,17.3,23.0,N/A,,Mostly Cloudy,360,2013-02-24 23:35:00
4:55 PM,28.4,21.2,74,29.66,10.0,North,17.3,21.9,N/A,,Mostly Cloudy,10,2013-02-24 23:55:00
5:15 PM,28.4,21.2,74,29.67,10.0,North,11.5,-,N/A,,Overcast,360,2013-02-25 00:15:00
5:35 PM,30.2,14.0,51,29.68,10.0,NNE,20.7,27.6,N/A,,Overcast,20,2013-02-25 00:35:00
5:55 PM,28.4,12.2,51,29.68,10.0,NNE,21.9,29.9,N/A,,Overcast,30,2013-02-25 00:55:00
6:15 PM,28.4,12.2,51,29.69,10.0,NNE,20.7,25.3,N/A,,Overcast,30,2013-02-25 01:15:00
6:35 PM,28.4,10.4,47,29.70,10.0,NE,19.6,27.6,N/A,,Overcast,40,2013-02-25 01:35:00
6:55 PM,28.4,10.4,47,29.70,10.0,NNE,21.9,35.7,N/A,,Overcast,30,2013-02-25 01:55:00
7:15 PM,28.4,17.6,64,29.72,10.0,NE,17.3,24.2,N/A,,Overcast,50,2013-02-25 02:15:00
7:35 PM,28.4,8.6,43,29.73,10.0,NNE,21.9,25.3,N/A,,Overcast,20,2013-02-25 02:35:00
7:55 PM,28.4,8.6,43,29.74,10.0,NE,21.9,31.1,N/A,,Overcast,50,2013-02-25 02:55:00
8:15 PM,28.4,6.8,40,29.75,10.0,NE,20.7,32.2,N/A,,Overcast,50,2013-02-25 03:15:00
8:35 PM,28.4,6.8,40,29.76,10.0,NE,18.4,29.9,N/A,,Overcast,50,2013-02-25 03:35:00
8:55 PM,26.6,6.8,43,29.78,10.0,NNE,11.5,32.2,N/A,,Overcast,20,2013-02-25 03:55:00
9:15 PM,26.6,8.6,47,29.78,10.0,North,13.8,17.3,N/A,,Overcast,10,2013-02-25 04:15:00
9:35 PM,26.6,8.6,47,29.79,10.0,North,15.0,19.6,N/A,,Overcast,360,2013-02-25 04:35:00
9:55 PM,24.8,8.6,50,29.79,10.0,North,16.1,-,N/A,,Overcast,350,2013-02-25 04:55:00
10:15 PM,24.8,8.6,50,29.78,10.0,NNW,18.4,25.3,N/A,,Overcast,340,2013-02-25 05:15:00
10:35 PM,24.8,8.6,50,29.80,10.0,North,11.5,24.2,N/A,,Overcast,360,2013-02-25 05:35:00
10:55 PM,24.8,8.6,50,29.80,10.0,NNE,9.2,-,N/A,,Overcast,20,2013-02-25 05:55:00
11:15 PM,24.8,8.6,50,29.80,10.0,North,15.0,20.7,N/A,,Overcast,360,2013-02-25 06:15:00
11:35 PM,23.0,8.6,54,29.81,10.0,NNE,13.8,-,N/A,,Overcast,20,2013-02-25 06:35:00
11:55 PM,23.0,8.6,54,29.82,10.0,North,13.8,20.7,N/A,,Overcast,10,2013-02-25 06:55:00